Preview of NWS' New Version of Forecast
This preview is not operational and should not be used for support decisions.

Regional Weather Roundup (RWR)

Issued by National Weather Service (NWS)

                            
000
ASUS45 KABQ 180810
RWRNM 
NEW MEXICO REGIONAL WEATHER ROUNDUP
NATIONAL WEATHER SERVICE ALBUQUERQUE NM
100 AM MST MON FEB 18 2019

NOTE: "FAIR" MEANS FEW OR NO CLOUDS BELOW 12,000 FEET AGL WITH NO
       SIGNIFICANT WEATHER OR OBSTRUCTIONS TO VISION.

      THIS PRODUCT IS RELEASED AS TWO VERSIONS.  ONE VERSION NEAR
      THE TOP OF THE HOUR CONTAINING PRELIMINARY DATA FROM ALBUQUERQUE
      AND OTHER STATIONS.  A FINAL VERSION WITH ADDITIONAL DATA IS 
      ISSUED ABOUT 10 MINUTES AFTER THE HOUR.
 
NMZ501-503-504-510>518-180900-
NORTHWEST PLATEAU/NORTHCENTRAL MOUNTAINS
  
CITY           SKY/WX    TMP DP  RH WIND       PRES   REMARKS
FARMINGTON     FLURRIES  27  25  92 E7        29.88R WCI  19          
LOS ALAMOS     CLOUDY    24  14  66 SW6       29.91S WCI  17          
SANTA FE       CLOUDY    20  19  96 CALM      29.93R                  
TAOS           LGT SNOW  23  20  88 W8        29.94R FOG     WCI  14  
ANGEL FIRE     LGT SNOW  16  13  88 CALM      29.89R                  

$$
NMZ402-403-502-505>509-180900-
WESTCENTRAL MOUNTAINS/SOUTHWEST MOUNTAINS
  
CITY           SKY/WX    TMP DP  RH WIND       PRES   REMARKS
GALLUP         FLURRIES  24  21  88 SW9       29.89S WCI  14          
GRANTS         MOCLDY    23  19  84 S7        29.93S WCI  15          
SILVER CITY    FAIR      25  17  72 NW12      29.96F WCI  14          

$$
NMZ407-409-411-412-180900-
SOUTHERN DESERTS
  
CITY           SKY/WX    TMP DP  RH WIND       PRES   REMARKS
DEMING         FAIR      28  15  58 W8        29.99S WCI  20          
LAS CRUCES     FAIR      32  13  45 W3        30.00S                  
ALAMOGORDO     FAIR      30  10  43 MISG      30.00R                  
T OR C         FAIR      33  13  43 SW5       29.96S WCI  29          

$$
NMZ519>523-180900-
CENTRAL VALLEYS/CENTRAL HIGHLANDS
  
CITY           SKY/WX    TMP DP  RH WIND       PRES   REMARKS
ALBUQUERQUE    CLOUDY    31  19  61 S3        29.96S                  
DOUBLE EAGLE   FAIR      23  18  80 W6        29.95S WCI  16          
MORIARTY ARPT  FAIR      19  17  90 CALM      29.96S                  
CLINES CORNERS MOCLDY    19  15  84 NW8       29.93R WCI   9          
BELEN          FAIR      24  13  63 NW8       29.96S WCI  15          
SOCORRO        FAIR      30  12  46 SW6       29.97S WCI  24          

$$
NMZ524>526-539-540-180900-
SOUTHCENTRAL MOUNTAINS
  
CITY           SKY/WX    TMP DP  RH WIND       PRES   REMARKS
RUIDOSO        NOT AVBL                                               

$$
NMZ527>531-180900-
NORTHEAST HIGHLANDS/NORTHEAST PLAINS
  
CITY           SKY/WX    TMP DP  RH WIND       PRES   REMARKS
LAS VEGAS      FAIR      19  16  88 SW9       29.92R WCI   8          
RATON          FLURRIES  24  17  74 N10       29.92R WCI  14          
CLAYTON        SNOW      16  13  88 NE17      30.07R VSB 1/2 WCI   0  

$$
NMZ532>537-180900-
EASTCENTRAL PLAINS
  
CITY           SKY/WX    TMP DP  RH WIND       PRES   REMARKS
SANTA ROSA     FAIR      26  10  49 S3        29.97R                  
TUCUMCARI      CLOUDY    36  20  52 SE13      30.00R WCI  27          
CANNON AFB     NOT AVBL                                               
CLOVIS AIRPORT FAIR      29  19  66 SE13      30.03R WCI  19          

$$
NMZ028-029-538-180900-
SOUTHEAST PLAINS
  
CITY           SKY/WX    TMP DP  RH WIND       PRES   REMARKS
ROSWELL        FAIR      31   5  33 CALM      29.97R                  
ARTESIA        FAIR      32   3  29 SE6       30.01R WCI  26          
CARLSBAD       FAIR      35  10  35 SE8       29.99R WCI  29          
HOBBS          FAIR      32  21  64 E3        30.03R                  


$$